Hourly Weather Avlasovo

Today, 24 September, Thursday

Time Temperature Precipitation Wind Pressure Humidity
00:00 +12°C° 0 mm 3 mps 744 mmHg 70%
01:00 +12°C° 0 mm 3 mps 745 mmHg 70%
02:00 +11°C° 0 mm 3 mps 745 mmHg 69%
03:00 +11°C° 0 mm 3 mps 745 mmHg 69%
04:00 +10°C° 0 mm 3 mps 745 mmHg 69%
05:00 +10°C° 0 mm 3 mps 745 mmHg 68%
06:00 +11°C° 0 mm 3 mps 745 mmHg 66%
07:00 +11°C° 0 mm 3 mps 745 mmHg 63%
08:00 +12°C° 0 mm 4 mps 745 mmHg 60%
09:00 +14°C° 0 mm 4 mps 745 mmHg 57%
10:00 +17°C° 0 mm 4 mps 745 mmHg 53%
11:00 +18°C° 0 mm 4 mps 745 mmHg 50%
12:00 +19°C° 0 mm 4 mps 745 mmHg 49%
13:00 +20°C° 0 mm 4 mps 745 mmHg 47%
14:00 +21°C° 0 mm 4 mps 745 mmHg 49%
15:00 +20°C° 0 mm 4 mps 745 mmHg 54%
16:00 +19°C° 0 mm 3 mps 745 mmHg 59%
17:00 +18°C° 0 mm 3 mps 744 mmHg 65%
18:00 +17°C° 0 mm 3 mps 744 mmHg 68%
19:00 +14°C° 0 mm 3 mps 745 mmHg 70%
20:00 +13°C° 0 mm 3 mps 745 mmHg 73%
21:00 +13°C° 0 mm 3 mps 745 mmHg 73%
22:00 +13°C° 0 mm 3 mps 745 mmHg 72%
23:00 +13°C° 0 mm 3 mps 744 mmHg 71%

Tomorrow, 25 September, Friday

Time Temperature Precipitation Wind Pressure Humidity
00:00 +12°C° 0 mm 3 mps 744 mmHg 72%
01:00 +12°C° 0 mm 3 mps 744 mmHg 72%
02:00 +11°C° 0 mm 3 mps 744 mmHg 72%
03:00 +11°C° 0 mm 3 mps 744 mmHg 73%
04:00 +11°C° 0 mm 3 mps 744 mmHg 74%
05:00 +10°C° 0 mm 3 mps 744 mmHg 75%
06:00 +11°C° 0 mm 3 mps 744 mmHg 71%
07:00 +12°C° 0 mm 3 mps 744 mmHg 68%
08:00 +13°C° 0 mm 3 mps 744 mmHg 65%
09:00 +15°C° 0 mm 4 mps 744 mmHg 62%
10:00 +17°C° 0 mm 4 mps 743 mmHg 59%
11:00 +19°C° 0 mm 4 mps 743 mmHg 56%
12:00 +20°C° 0 mm 4 mps 743 mmHg 55%
13:00 +21°C° 0 mm 4 mps 743 mmHg 55%
14:00 +21°C° 0 mm 4 mps 743 mmHg 54%
15:00 +20°C° 0 mm 4 mps 743 mmHg 59%
16:00 +19°C° 0 mm 4 mps 742 mmHg 65%
17:00 +18°C° 0 mm 3 mps 742 mmHg 71%
18:00 +17°C° 0 mm 4 mps 742 mmHg 73%
19:00 +15°C° 0 mm 4 mps 742 mmHg 75%
20:00 +14°C° 0 mm 4 mps 742 mmHg 78%
21:00 +14°C° 0 mm 4 mps 742 mmHg 77%
22:00 +14°C° 0 mm 4 mps 742 mmHg 77%
23:00 +14°C° 0 mm 4 mps 742 mmHg 77%

Day after tomorrow, 26 September, Saturday

Time Temperature Precipitation Wind Pressure Humidity
00:00 +14°C° 0 mm 4 mps 742 mmHg 77%
01:00 +14°C° 0 mm 4 mps 742 mmHg 77%
02:00 +14°C° 0 mm 4 mps 742 mmHg 77%
03:00 +13°C° 0 mm 4 mps 742 mmHg 74%
04:00 +13°C° 0 mm 4 mps 741 mmHg 72%
05:00 +13°C° 0 mm 4 mps 741 mmHg 70%
06:00 +13°C° 0 mm 5 mps 741 mmHg 68%
07:00 +14°C° 0 mm 5 mps 742 mmHg 67%
08:00 +14°C° 0 mm 5 mps 742 mmHg 65%
09:00 +16°C° 0 mm 5 mps 742 mmHg 63%
10:00 +19°C° 0 mm 6 mps 742 mmHg 62%
11:00 +20°C° 0 mm 6 mps 742 mmHg 60%
12:00 +21°C° 0 mm 6 mps 742 mmHg 58%
13:00 +22°C° 0 mm 6 mps 742 mmHg 56%
14:00 +23°C° 0 mm 6 mps 742 mmHg 55%
15:00 +22°C° 0 mm 6 mps 743 mmHg 58%
16:00 +21°C° 0 mm 5 mps 743 mmHg 62%
17:00 +20°C° 0 mm 5 mps 743 mmHg 66%
18:00 +19°C° 0 mm 5 mps 743 mmHg 68%
19:00 +17°C° 0 mm 5 mps 743 mmHg 69%
20:00 +16°C° 0 mm 5 mps 743 mmHg 70%
21:00 +16°C° 0 mm 5 mps 743 mmHg 69%
22:00 +16°C° 0 mm 5 mps 743 mmHg 68%
23:00 +15°C° 0 mm 5 mps 743 mmHg 67%

27 September, Sunday

Time Temperature Precipitation Wind Pressure Humidity
00:00 +15°C° 0 mm 5 mps 743 mmHg 66%
01:00 +14°C° 0 mm 5 mps 743 mmHg 65%
02:00 +14°C° 0 mm 5 mps 743 mmHg 64%
03:00 +14°C° 0 mm 5 mps 743 mmHg 64%
04:00 +13°C° 0 mm 5 mps 743 mmHg 63%
05:00 +13°C° 0 mm 5 mps 743 mmHg 63%
06:00 +13°C° 0 mm 5 mps 743 mmHg 63%
07:00 +13°C° 0 mm 6 mps 743 mmHg 63%
08:00 +14°C° 0 mm 6 mps 743 mmHg 63%
09:00 +15°C° 0 mm 6 mps 743 mmHg 61%
10:00 +16°C° 0 mm 7 mps 743 mmHg 59%
11:00 +18°C° 0 mm 7 mps 743 mmHg 57%
12:00 +18°C° 0 mm 7 mps 743 mmHg 56%
13:00 +20°C° 0 mm 8 mps 743 mmHg 55%
14:00 +20°C° 0 mm 8 mps 743 mmHg 53%
15:00 +18°C° 0 mm 7 mps 743 mmHg 55%
16:00 +17°C° 0 mm 7 mps 742 mmHg 57%
17:00 +16°C° 0 mm 6 mps 742 mmHg 58%
18:00 +16°C° 0.1 mm 6 mps 743 mmHg 60%
19:00 +15°C° 0.1 mm 6 mps 743 mmHg 62%
20:00 +15°C° 0.1 mm 6 mps 743 mmHg 64%
21:00 +14°C° 0.2 mm 6 mps 743 mmHg 71%
22:00 +14°C° 0.2 mm 5 mps 744 mmHg 78%
23:00 +14°C° 0.2 mm 5 mps 745 mmHg 84%

28 September, Monday

Time Temperature Precipitation Wind Pressure Humidity
00:00 +12°C° 0 mm 4 mps 745 mmHg 86%
01:00 +11°C° 0 mm 3 mps 745 mmHg 88%
02:00 +10°C° 0 mm 2 mps 746 mmHg 90%
03:00 +9°C° 0 mm 2 mps 746 mmHg 91%
04:00 +9°C° 0 mm 1 mps 746 mmHg 93%
05:00 +9°C° 0 mm 1 mps 747 mmHg 94%
06:00 +9°C° 0 mm 1 mps 747 mmHg 91%
07:00 +10°C° 0 mm 1 mps 747 mmHg 87%
08:00 +11°C° 0 mm 1 mps 748 mmHg 84%
09:00 +13°C° 0 mm 1 mps 748 mmHg 75%
10:00 +14°C° 0 mm 1 mps 748 mmHg 66%
11:00 +16°C° 0 mm 1 mps 748 mmHg 58%
12:00 +16°C° 0 mm 0 mps 748 mmHg 55%
13:00 +16°C° 0 mm 0 mps 749 mmHg 52%
14:00 +17°C° 0 mm 0 mps 749 mmHg 49%
15:00 +18°C° 0 mm 1 mps 748 mmHg 54%
16:00 +16°C° 0 mm 1 mps 748 mmHg 59%
17:00 +15°C° 0 mm 1 mps 748 mmHg 63%
18:00 +14°C° 0 mm 1 mps 748 mmHg 66%
19:00 +13°C° 0 mm 2 mps 748 mmHg 69%
20:00 +12°C° 0 mm 2 mps 748 mmHg 71%
21:00 +12°C° 0 mm 2 mps 748 mmHg 74%
22:00 +10°C° 0 mm 2 mps 748 mmHg 76%
23:00 +10°C° 0 mm 2 mps 748 mmHg 79%

29 September, Tuesday

Time Temperature Precipitation Wind Pressure Humidity
00:00 +10°C° 0 mm 2 mps 748 mmHg 80%
01:00 +11°C° 0 mm 3 mps 747 mmHg 82%
02:00 +11°C° 0 mm 3 mps 747 mmHg 84%
03:00 +11°C° 0.1 mm 3 mps 747 mmHg 86%
04:00 +11°C° 0.1 mm 3 mps 746 mmHg 87%
05:00 +12°C° 0.1 mm 3 mps 746 mmHg 89%
06:00 +12°C° 0.1 mm 3 mps 746 mmHg 89%
07:00 +12°C° 0.1 mm 3 mps 746 mmHg 88%
08:00 +12°C° 0.1 mm 3 mps 746 mmHg 88%
09:00 +13°C° 0.1 mm 3 mps 745 mmHg 85%
10:00 +14°C° 0.1 mm 3 mps 745 mmHg 82%
11:00 +16°C° 0.1 mm 3 mps 745 mmHg 79%
12:00 +16°C° 0 mm 3 mps 745 mmHg 78%
13:00 +17°C° 0 mm 3 mps 745 mmHg 77%
14:00 +17°C° 0 mm 3 mps 744 mmHg 76%
15:00 +17°C° 0 mm 3 mps 744 mmHg 77%
16:00 +17°C° 0 mm 4 mps 743 mmHg 79%
17:00 +17°C° 0 mm 4 mps 743 mmHg 80%
18:00 +15°C° 0 mm 4 mps 743 mmHg 81%
19:00 +15°C° 0 mm 4 mps 743 mmHg 82%
20:00 +14°C° 0 mm 4 mps 742 mmHg 83%
21:00 +14°C° 0 mm 4 mps 742 mmHg 83%
22:00 +14°C° 0 mm 4 mps 742 mmHg 83%
23:00 +13°C° 0 mm 4 mps 742 mmHg 84%
Show more